Location: *
(55.5817°S, 142.4781°W)
Time: 06:20:51
(UTC+00:00)

Cosmos 1125 Rocket - Pass Details

Date: 29 April 2025
Orbit: 753 x 776 km, 74.0° (Epoch: 23 May)

Event Time Altitude Azimuth Distance (km) Brightness Sun altitude
Exits shadow 14:10:40 46° 232° (SW) 1,037 3.8 -22.8°
Drops below altitude 10° 14:15:47 10° 159° (SSE) 2,337 6.3 -22.1°
Sets 14:18:17 0° 152° (SSE) 3,265 7.2 -21.8°
